Wind_Speed
17 16 17 20 21 21 21 23 24 25 26 28 29 28 26 37 33 42 36 40 38 44 40 29 37 38 35 35 34 32 30 33 31 31 31 30 29 28 25 25 26 24 23
17 19 20 19 19 22 25 26 26 25 29 29 29 29 30 29 35 38 45 39 36 36 39 37 37 41 39 38 37 35 36 34 34 33 32 31 30 29 27 27 27 25 25
23 22 22 20 20 24 28 27 25 28 30 32 33 31 33 31 31 30 39 43 43 40 46 45 33 23 37 43 40 36 36 35 35 33 33 32 31 31 29 29 28 28 26
23 24 24 26 28 28 31 32 34 32 34 33 34 36 35 34 35 35 30 37 40 42 42 44 37 36 35 41 42 37 36 36 36 33 33 32 32 32 32 31 30 29 28
25 26 28 29 30 30 33 34 35 38 37 37 36 36 38 38 38 38 38 36 32 42 40 41 53 43 42 38 43 41 39 37 34 36 35 32 33 34 34 32 31 31 29
26 29 31 32 34 35 35 35 38 40 42 43 44 42 41 42 41 41 42 39 35 36 37 40 42 50 42 42 38 42 45 41 38 37 35 32 34 36 35 34 33 32 30
29 31 33 33 33 33 36 40 43 45 44 46 49 48 46 48 45 47 50 44 39 36 36 36 41 42 47 47 44 43 47 44 42 41 39 35 37 38 37 35 35 34 32
28 31 31 28 33 36 36 39 40 42 47 47 50 50 49 51 53 54 50 44 42 39 38 36 39 41 41 51 47 48 43 46 45 45 43 39 39 41 39 37 37 36 35
25 27 26 30 31 35 36 39 43 43 48 50 54 55 53 56 60 60 59 47 43 41 39 39 35 38 42 48 52 53 51 44 47 43 51 46 42 44 42 39 39 38 37
25 24 23 28 32 33 37 41 44 48 52 56 58 61 62 63 62 62 60 52 46 43 41 40 41 36 38 49 53 52 49 47 49 50 46 46 46 46 45 42 41 40 38
24 27 30 35 37 39 40 43 47 51 56 60 63 66 67 67 68 65 64 54 51 50 45 43 42 40 39 43 57 53 45 43 43 54 45 50 51 49 48 45 43 41 39
28 31 34 38 41 44 46 50 51 56 59 61 65 67 70 70 73 71 68 57 55 55 47 45 43 44 42 39 54 59 56 47 39 50 48 48 48 53 49 48 46 44 41
32 35 38 41 45 47 51 53 56 61 64 67 68 71 74 77 79 75 67 60 56 54 49 47 45 46 45 44 47 49 59 64 46 37 40 43 47 49 52 49 49 46 43
35 37 41 45 47 51 55 57 63 66 70 71 74 76 78 82 78 72 60 53 53 50 49 49 47 45 47 46 41 45 49 61 60 52 43 45 43 48 47 52 51 48 47
39 41 45 48 51 54 59 63 66 68 71 73 76 77 83 79 71 67 60 52 48 46 49 50 50 48 49 46 45 43 44 47 51 51 57 55 50 52 54 52 52 49 50
43 46 48 51 54 57 60 67 69 72 72 74 76 80 84 73 67 65 61 52 49 43 48 50 52 49 49 49 47 43 49 42 46 50 51 53 55 53 57 51 56 51 52
45 49 50 53 57 60 63 69 70 72 75 79 79 79 72 68 62 56 51 46 41 41 46 50 52 52 50 49 47 45 46 42 40 52 52 52 50 48 45 48 50 51 52
48 52 52 55 59 61 67 70 72 73 78 80 78 76 71 58 50 46 40 37 38 35 41 50 53 55 51 50 48 47 46 51 42 39 46 49 41 38 37 43 47 48 49
50 53 54 57 60 64 68 70 71 75 80 79 76 72 59 48 44 43 40 35 34 33 36 49 53 55 52 51 49 50 46 49 51 42 43 45 47 43 38 41 42 47 45
52 54 56 58 62 66 67 70 73 76 79 78 75 62 51 45 42 40 42 41 33 32 33 45 51 54 51 52 51 50 49 46 47 40 43 48 48 47 43 45 42 44 45
53 55 57 60 64 66 67 69 73 76 77 77 73 57 48 44 42 42 44 42 36 30 32 42 47 54 49 53 54 51 49 48 44 43 47 46 47 45 49 49 48 42 43
53 55 57 60 63 64 68 69 74 76 76 76 66 55 51 43 43 45 42 39 37 31 29 38 45 51 50 52 54 52 50 49 48 48 43 42 47 46 47 49 45 45 46
53 55 57 61 62 64 66 70 74 75 75 69 58 51 45 44 44 47 38 40 40 32 25 33 43 48 50 49 53 52 51 50 50 52 52 48 41 49 51 51 45 41 44
54 54 58 60 61 64 66 70 74 75 75 68 55 51 45 45 47 43 39 43 42 32 24 31 41 43 49 47 50 53 51 50 49 46 47 44 43 41 46 50 50 47 49
53 54 57 57 59 64 66 70 73 75 74 64 53 51 46 47 48 40 40 43 43 30 25 23 30 39 44 44 40 49 51 50 50 40 33 39 44 38 37 45 46 51 50
51 55 56 56 59 62 65 70 72 73 73 60 52 50 47 46 46 38 41 41 42 28 28 21 22 29 41 43 28 26 45 48 47 50 34 36 42 44 40 38 39 47 51
Wind_Direction
2 356 357 356 356 356 0 358 357 352 345 339 328 316 308 294 291 280 274 257 266 252 256 255 245 235 240 240 244 244 244 245 243 242 241 241 238 233 230 227 226 224 230
7 3 1 359 356 355 356 355 356 359 357 346 339 333 323 312 308 271 287 278 271 277 258 256 251 248 237 241 240 241 240 244 244 244 244 243 238 231 228 226 226 227 229
7 359 354 351 352 351 349 349 349 349 347 346 345 338 326 320 314 310 296 293 295 288 255 253 241 242 241 237 239 240 244 244 244 244 243 242 238 231 229 227 226 227 230
2 1 356 351 347 343 343 339 339 341 343 341 338 333 336 327 317 308 303 296 289 287 278 250 238 238 240 237 237 242 244 246 243 240 242 242 239 231 229 228 227 227 229
351 351 350 348 346 340 335 333 333 334 333 336 336 334 327 324 327 315 303 296 292 291 290 277 251 245 239 238 237 239 244 245 245 239 238 238 238 233 230 228 228 228 228
343 341 339 336 334 333 329 329 332 332 330 331 326 327 326 322 319 319 310 296 292 290 289 288 262 239 240 239 240 241 241 243 241 241 239 237 238 235 232 228 228 229 229
340 338 335 333 331 331 331 330 330 329 326 326 323 320 318 322 315 317 312 299 286 283 280 282 265 257 243 240 243 245 244 241 242 242 241 235 238 241 230 230 228 230 232
334 331 331 340 342 345 340 338 327 321 320 318 321 321 318 316 316 316 316 295 286 275 274 273 278 267 247 241 240 241 243 243 243 242 242 233 233 239 236 229 231 232 233
327 329 331 336 332 335 325 320 322 316 321 317 314 318 320 316 311 312 316 299 285 275 268 268 268 278 249 243 241 239 244 244 248 232 245 235 230 235 237 231 232 234 235
322 320 322 322 324 321 324 321 321 314 313 313 315 313 311 311 312 311 312 301 289 279 266 258 260 264 266 246 238 238 237 238 238 247 229 231 228 232 233 234 233 233 235
318 320 323 320 319 315 315 315 311 313 309 310 309 309 310 309 308 307 309 297 290 282 269 257 253 255 257 253 237 234 230 240 240 239 227 236 234 236 231 231 232 233 234
318 319 318 322 320 319 317 315 315 309 306 306 307 308 308 308 308 307 302 293 286 280 270 258 249 249 250 255 239 234 228 235 251 236 237 226 237 240 236 228 231 234 234
318 314 316 317 320 319 317 315 314 312 311 309 307 308 311 310 310 307 297 289 281 275 267 256 249 246 246 250 241 229 234 231 238 244 237 239 231 239 241 227 228 230 234
312 311 311 313 316 317 317 318 314 314 314 312 309 313 314 314 310 302 298 287 278 269 261 253 244 243 244 246 246 230 223 226 232 237 243 237 247 233 231 228 230 228 233
317 315 314 314 314 316 317 317 315 316 316 316 317 321 322 315 307 304 296 287 275 262 254 250 242 237 239 240 243 237 215 213 222 230 235 240 240 239 241 231 232 231 233
321 321 321 322 321 319 318 317 317 319 320 321 325 326 323 314 311 305 300 294 278 261 246 243 239 234 237 235 238 237 219 202 213 217 224 232 233 234 235 239 235 235 234
320 321 322 324 324 322 320 318 320 321 323 326 332 328 322 319 313 308 304 298 283 267 242 238 234 231 233 233 234 234 238 232 216 207 215 222 224 228 234 235 233 232 234
321 323 323 323 325 323 322 323 324 326 329 335 333 328 325 319 313 308 303 296 286 270 242 233 232 230 228 229 229 228 232 237 221 213 213 217 224 223 237 235 240 236 235
324 324 325 325 325 324 325 326 327 331 336 337 333 329 324 320 314 309 306 298 283 273 250 234 228 229 225 226 225 225 228 234 237 220 221 221 215 218 229 231 238 239 234
325 324 326 327 326 325 328 328 331 336 339 337 334 329 325 323 318 314 317 315 294 276 252 239 227 226 225 225 224 224 224 225 239 221 230 227 219 219 230 232 232 234 234
325 324 327 327 326 327 329 331 334 338 339 336 333 330 329 327 323 318 320 320 307 280 263 239 228 224 224 225 224 224 222 222 219 234 229 229 225 221 228 226 227 229 228
324 325 327 327 326 330 331 333 337 339 338 337 334 332 331 329 325 324 325 325 318 297 263 244 232 224 224 226 224 225 223 220 216 219 226 234 232 227 225 224 232 230 228
324 326 327 326 328 332 334 338 341 339 339 337 334 331 330 329 328 329 329 330 327 310 268 241 237 227 226 227 226 226 226 220 217 214 222 224 229 225 222 226 232 232 234
325 327 326 326 331 333 335 339 341 339 339 337 337 336 333 333 333 330 329 335 333 316 290 238 234 235 227 227 229 226 228 223 222 227 228 227 227 224 226 231 233 231 232
325 326 325 328 333 334 337 341 341 340 339 339 341 339 333 333 334 329 331 333 336 321 308 248 238 232 230 227 232 235 229 229 224 223 223 232 228 226 225 227 231 231 234
326 325 325 329 333 334 340 342 342 340 340 340 341 339 334 330 332 330 329 333 336 321 320 240 240 236 229 228 218 231 236 233 232 228 227 233 230 229 230 229 231 233 234
Height
5813 5812 5811 5810 5808 5805 5803 5801 5798 5796 5792 5789 5786 5782 5779 5779 5777 5778 5777 5776 5775 5775 5776 5776 5777 5778 5780 5780 5782 5784 5785 5784 5786 5786 5787 5788 5788 5790 5792 5793 5795 5796 5797
5814 5812 5810 5808 5806 5804 5801 5799 5797 5795 5791 5786 5783 5779 5776 5773 5772 5771 5771 5769 5768 5769 5769 5771 5770 5772 5773 5774 5774 5776 5777 5778 5780 5781 5782 5784 5785 5785 5787 5788 5790 5793 5793
5814 5812 5810 5808 5806 5803 5800 5797 5795 5791 5789 5785 5781 5777 5773 5769 5765 5763 5763 5763 5763 5763 5761 5762 5763 5762 5765 5766 5767 5769 5771 5772 5774 5776 5778 5779 5780 5781 5783 5784 5785 5787 5789
5815 5813 5811 5808 5805 5803 5800 5796 5792 5790 5785 5782 5778 5773 5768 5764 5760 5758 5755 5754 5754 5756 5753 5753 5755 5757 5757 5759 5761 5764 5765 5766 5767 5771 5773 5774 5775 5776 5778 5779 5781 5782 5784
5815 5812 5810 5807 5804 5801 5797 5793 5789 5785 5780 5778 5775 5771 5767 5762 5758 5754 5750 5747 5744 5746 5746 5744 5745 5749 5751 5753 5754 5757 5759 5760 5761 5762 5766 5768 5769 5770 5772 5774 5776 5777 5779
5813 5811 5808 5806 5803 5799 5794 5789 5785 5780 5774 5771 5767 5765 5762 5757 5753 5749 5744 5740 5735 5733 5734 5735 5736 5740 5743 5745 5746 5749 5752 5753 5755 5756 5759 5762 5763 5764 5767 5768 5771 5773 5774
5811 5809 5806 5803 5799 5795 5790 5786 5780 5775 5770 5765 5759 5756 5753 5749 5746 5742 5738 5732 5729 5727 5725 5725 5727 5730 5733 5736 5739 5741 5743 5745 5748 5748 5752 5756 5757 5756 5761 5763 5764 5767 5769
5808 5805 5802 5799 5795 5791 5786 5782 5778 5772 5766 5760 5755 5748 5743 5739 5736 5732 5729 5724 5721 5719 5717 5714 5715 5720 5722 5725 5729 5732 5735 5738 5739 5739 5745 5748 5751 5749 5754 5757 5759 5762 5764
5805 5802 5799 5796 5792 5787 5782 5777 5771 5765 5758 5752 5746 5742 5735 5729 5725 5721 5717 5714 5710 5708 5707 5706 5705 5708 5712 5713 5718 5722 5726 5729 5725 5728 5735 5739 5743 5743 5747 5751 5753 5756 5758
5802 5799 5795 5791 5786 5780 5775 5770 5764 5758 5750 5743 5736 5728 5724 5720 5715 5710 5705 5702 5698 5696 5696 5696 5696 5697 5700 5702 5706 5711 5717 5720 5721 5722 5724 5728 5733 5736 5739 5743 5746 5749 5751
5798 5796 5792 5787 5781 5775 5768 5762 5756 5749 5741 5733 5725 5717 5710 5706 5702 5698 5693 5689 5685 5683 5682 5684 5684 5686 5689 5690 5694 5700 5707 5706 5709 5712 5714 5720 5724 5727 5730 5736 5737 5741 5744
5795 5791 5786 5780 5774 5770 5763 5755 5747 5739 5731 5724 5716 5707 5698 5692 5687 5683 5678 5673 5669 5668 5668 5669 5671 5673 5676 5678 5682 5690 5694 5696 5696 5701 5704 5710 5715 5718 5722 5728 5729 5733 5737
5790 5786 5780 5774 5768 5762 5755 5748 5740 5730 5720 5710 5702 5693 5684 5677 5668 5663 5658 5653 5651 5650 5651 5654 5656 5659 5662 5666 5670 5679 5683 5689 5688 5691 5695 5701 5706 5709 5713 5718 5720 5725 5728
5784 5780 5774 5768 5762 5755 5746 5739 5729 5719 5709 5698 5686 5677 5671 5660 5648 5638 5636 5633 5633 5634 5635 5638 5642 5646 5649 5652 5657 5664 5668 5674 5676 5681 5686 5692 5697 5698 5701 5707 5710 5716 5720
5778 5773 5767 5761 5754 5746 5737 5728 5718 5707 5696 5684 5672 5661 5649 5640 5625 5618 5613 5613 5614 5617 5618 5621 5627 5631 5636 5640 5644 5650 5656 5659 5664 5669 5675 5681 5687 5688 5691 5697 5701 5707 5710
5773 5767 5761 5754 5746 5737 5728 5718 5706 5694 5682 5671 5658 5645 5632 5615 5607 5596 5592 5593 5594 5598 5601 5605 5610 5615 5622 5626 5632 5636 5642 5645 5650 5655 5663 5669 5676 5679 5681 5686 5690 5695 5699
5767 5760 5754 5746 5738 5729 5718 5706 5694 5682 5670 5655 5643 5629 5614 5600 5588 5582 5576 5574 5576 5579 5583 5588 5593 5599 5607 5612 5619 5623 5627 5632 5638 5642 5650 5659 5664 5668 5671 5674 5677 5683 5689
5760 5753 5745 5738 5728 5718 5707 5694 5681 5668 5654 5639 5626 5612 5599 5588 5578 5570 5566 5563 5560 5561 5566 5571 5577 5583 5590 5596 5603 5609 5614 5617 5626 5632 5639 5647 5654 5658 5660 5664 5666 5672 5678
5752 5745 5738 5728 5719 5708 5697 5685 5671 5657 5641 5628 5613 5599 5586 5576 5569 5560 5555 5553 5549 5547 5549 5554 5560 5568 5574 5582 5589 5595 5601 5607 5610 5621 5626 5631 5639 5646 5650 5654 5655 5661 5667
5746 5738 5730 5720 5709 5698 5687 5674 5661 5648 5632 5617 5601 5587 5577 5568 5560 5552 5545 5540 5538 5536 5536 5539 5546 5553 5559 5566 5574 5582 5588 5594 5599 5608 5615 5620 5625 5633 5638 5641 5645 5650 5658
5738 5730 5721 5712 5701 5690 5679 5668 5653 5639 5624 5607 5590 5578 5569 5560 5552 5545 5537 5530 5525 5525 5526 5527 5530 5538 5545 5550 5559 5568 5575 5583 5590 5595 5603 5608 5614 5621 5624 5628 5634 5640 5646
5730 5722 5713 5702 5692 5681 5670 5658 5643 5627 5611 5595 5581 5568 5560 5552 5544 5537 5529 5521 5516 5512 5514 5516 5516 5524 5531 5538 5548 5555 5562 5570 5577 5586 5593 5597 5602 5608 5612 5617 5623 5629 5633
5722 5714 5704 5694 5684 5674 5662 5648 5632 5617 5602 5590 5576 5564 5554 5545 5537 5529 5522 5515 5508 5502 5501 5504 5508 5512 5521 5527 5535 5542 5550 5557 5565 5574 5581 5587 5590 5596 5601 5605 5611 5618 5623
5714 5706 5696 5686 5677 5666 5654 5641 5626 5612 5598 5583 5569 5557 5547 5539 5531 5522 5516 5510 5502 5495 5492 5493 5499 5504 5510 5517 5524 5531 5539 5546 5554 5561 5567 5573 5578 5584 5590 5595 5600 5606 5611
5706 5698 5688 5679 5669 5659 5647 5634 5620 5604 5588 5574 5562 5552 5541 5532 5525 5518 5512 5505 5497 5490 5486 5486 5489 5495 5501 5509 5517 5521 5529 5537 5542 5549 5555 5559 5565 5571 5577 5584 5589 5595 5601
5699 5690 5681 5672 5663 5652 5640 5627 5613 5599 5584 5570 5559 5549 5538 5528 5520 5513 5506 5499 5492 5486 5481 5481 5483 5486 5492 5501 5507 5514 5519 5526 5533 5539 5544 5550 5556 5561 5568 5574 5579 5585 5591